This is the latest recevied weather packets stored in our database for station/object W0AKY-13. If no packets are shown the sender has not sent any weather packets the latest 10 day(s).
| Time | Temp. | Humidity | Pressure | Rain* | Wind** | Luminosity | Snow |
|---|---|---|---|---|---|---|---|
| 1777305639 | 15.56° C | 91% | 1004.4 hPa | 0 mm | - | 103 W/m² | - |
| 1777305335 | 16.11° C | 91% | 1004 hPa | 0 mm | - | 193 W/m² | - |
| 1777305035 | 16.11° C | 91% | 1003.8 hPa | 0 mm | - | 119 W/m² | - |
| 1777304735 | 16.11° C | 91% | 1004.1 hPa | 0 mm | - | 112 W/m² | - |
| 1777304432 | 16.11° C | 91% | 1004 hPa | 0 mm | - | 199 W/m² | - |
| 1777304130 | 15.56° C | 93% | 1003.8 hPa | 0 mm | - | 478 W/m² | - |
| 1777303826 | 15.56° C | 93% | 1003.9 hPa | 0 mm | - | 144 W/m² | - |
| 1777303524 | 15.56° C | 94% | 1003.7 hPa | 0 mm | - | 83 W/m² | - |
| 1777303221 | 16.11° C | 94% | 1003.7 hPa | 0 mm | - | 79 W/m² | - |
| 1777302920 | 16.11° C | 93% | 1003.7 hPa | 0 mm | - | 113 W/m² | - |
| 1777302616 | 16.11° C | 93% | 1003.6 hPa | 0 mm | - | 122 W/m² | - |
| 1777302314 | 15.56° C | 94% | 1003.4 hPa | 0 mm | - | 119 W/m² | - |
| 1777302012 | 15.56° C | 95% | 1003.2 hPa | 0 mm | - | 148 W/m² | - |
| 1777301710 | 15.56° C | 96% | 1003.3 hPa | 0 mm | - | 136 W/m² | - |
| 1777301406 | 15.56° C | 98% | 1003.2 hPa | 0 mm | - | 113 W/m² | - |
| 1777301102 | 15.56° C | 98% | 1003.4 hPa | 0 mm | - | 89 W/m² | - |
| 1777300800 | 15.56° C | 99% | 1003.2 hPa | 0 mm | - | 72 W/m² | - |
| 1777300498 | 15.56° C | 99% | 1003 hPa | 0 mm | - | 64 W/m² | - |
| 1777300195 | 15.56° C | 99% | 1003.1 hPa | 1.78 mm | - | 66 W/m² | - |
| 1777299891 | 15.56° C | 99% | 1003 hPa | 1.78 mm | - | 20 W/m² | - |
| 1777299589 | 15.56° C | 99% | 1003.2 hPa | 0 mm | - | 28 W/m² | - |
| 1777299287 | 15.56° C | 99% | 1003.2 hPa | 0 mm | - | 27 W/m² | - |
| 1777298983 | 15.56° C | 99% | 1003.1 hPa | 0 mm | - | 29 W/m² | - |
| 1777298681 | 15.56° C | 99% | 1003.2 hPa | 0 mm | - | 46 W/m² | - |
| 1777298377 | 15.56° C | 99% | 1003 hPa | 0 mm | - | 121 W/m² | - |
* Rain latest hour (hover to see other rain measurements)
** Current wind speed in m/s (hover to see current wind gust speed)